Zurück zum Katalog

NAVSTAR 19

USA 54

AktivNavigationMEO
NORAD 20533·PAYLOAD·🇺🇸 United States

Gestartet Mar 26, 1990 von Cape Canaveral Space Force Station

Loading…

Nächste Überflüge (nächste 24 Stunden)

TLE

AktuellSource: Space-Track

Epoche: Sep 14, 2026, 11:56 UTC

1 20533U 90025A   26257.49749687  .00000011  00000-0  00000-0 0  9997
2 20533  53.4271 242.2148 0047167 229.0379 309.5129  1.91038690256725

Verfolge NAVSTAR 19 in Echtzeit mit AllMySat

Download on the App Store